EA3GYL La Torregassa ES current weather conditions

sailwx.info

Wind from 023 at 3 knots gusting 8

Air temperature 12.2° C
Dewpoint 10.1° C

Last reported at 2016-Dec-04 05:52 UTC.
Time now 2016-Dec-04 06:11 UTC

Location: N 41°17' E 001°31'.
View on Google Maps.

See reports from other nearby stations

  
Tides and Currents Weather Stations Pressure Air Temp Water Temp Dewpoint Dewpoint Depression Visibility Wind Speed Wind Dir Waves Ship Positions
date/time (UTC)wind fromknots sea level pressurealtimeterstation pressurevisibilityair tempwater tempwave heightnotes
2016-Dec-04 05:52 023 3 gusting 8 12.2
2016-Dec-04 05:42 023 3 gusting 9 12.2
2016-Dec-04 05:32 031 3 gusting 7 12.2
2016-Dec-04 05:22 027 4 gusting 11 12.2
2016-Dec-04 05:12 024 3 gusting 7 12.2
2016-Dec-04 05:02 020 3 gusting 9 12.2
2016-Dec-04 04:52 019 3 gusting 8 12.2
2016-Dec-04 04:42 021 3 gusting 7 12.2
2016-Dec-04 04:22 016 3 gusting 6 12.2
2016-Dec-04 04:12 018 2 gusting 6 12.2
2016-Dec-04 04:02 019 3 gusting 7 12.2
2016-Dec-04 03:52 018 3 gusting 7 12.2
2016-Dec-04 03:42 017 3 gusting 7 12.2
2016-Dec-04 03:32 019 3 gusting 7 12.2
2016-Dec-04 03:22 020 3 gusting 8 12.2
2016-Dec-04 03:12 017 5 gusting 11 12.2
2016-Dec-04 03:02 025 3 gusting 8 12.2
2016-Dec-04 02:52 020 2 gusting 9 12.2
2016-Dec-04 02:42 019 4 gusting 7 12.2
2016-Dec-04 02:32 019 4 gusting 8 12.2
2016-Dec-04 02:22 025 2 gusting 7 11.7
2016-Dec-04 02:12 060 0 gusting 4 10.6
2016-Dec-04 02:02 10.6
2016-Dec-04 01:52 11.1
2016-Dec-04 01:42 061 0 gusting 1 11.7
2016-Dec-04 01:32 043 1 gusting 5 11.7
2016-Dec-04 01:22 039 0 gusting 5 12.2
2016-Dec-04 01:12 015 0 gusting 3 12.2
2016-Dec-04 01:02 018 0 gusting 3 12.2
2016-Dec-04 00:52 030 2 gusting 5 12.2
2016-Dec-04 00:42 020 2 gusting 6 12.2
2016-Dec-04 00:32 026 2 gusting 6 12.2
2016-Dec-04 00:22 022 3 gusting 6 12.2
2016-Dec-04 00:12 018 2 gusting 6 12.2
2016-Dec-04 00:02 022 3 gusting 8 12.2
2016-Dec-03 23:52 018 3 gusting 8 12.2
2016-Dec-03 23:42 019 2 gusting 7 11.7
2016-Dec-03 23:32 020 3 gusting 11 11.7
2016-Dec-03 23:22 017 4 gusting 8 11.7
2016-Dec-03 23:12 024 3 gusting 9 11.7
2016-Dec-03 23:02 018 4 gusting 8 11.7
2016-Dec-03 22:52 024 3 gusting 8 11.7
2016-Dec-03 22:42 015 4 gusting 6 11.7
2016-Dec-03 22:32 017 4 gusting 8 11.7
2016-Dec-03 22:22 021 5 gusting 10 11.1
2016-Dec-03 22:12 030 3 gusting 7 11.7
2016-Dec-03 22:02 022 2 gusting 6 11.7
2016-Dec-03 21:52 013 3 gusting 6 11.7
2016-Dec-03 21:42 017 2 gusting 6 11.7
2016-Dec-03 21:32 022 2 gusting 6 11.7
2016-Dec-03 21:22 020 2 gusting 5 11.7
2016-Dec-03 21:12 024 1 gusting 5 11.1
2016-Dec-03 21:02 018 1 gusting 6 11.1
2016-Dec-03 20:52 009 1 gusting 4 11.1
2016-Dec-03 20:42 013 1 gusting 5 11.1
2016-Dec-03 20:32 020 0 gusting 3 10.6
2016-Dec-03 20:22 014 0 gusting 2 10.6
2016-Dec-03 20:12 018 1 gusting 2 10.6
2016-Dec-03 20:02 016 0 gusting 2 10.0
2016-Dec-03 19:52 9.4
2016-Dec-03 19:42 9.4
2016-Dec-03 19:32 9.4
2016-Dec-03 19:22 10.0
2016-Dec-03 19:12 10.0
2016-Dec-03 19:02 10.6
2016-Dec-03 18:52 10.6
2016-Dec-03 18:42 10.6
2016-Dec-03 18:32 10.6
2016-Dec-03 18:22 10.6
2016-Dec-03 18:12 10.6
2016-Dec-03 18:02 024 0 gusting 2 10.6
2016-Dec-03 17:52 024 1 gusting 4 11.1
2016-Dec-03 17:42 027 1 gusting 4 11.1
2016-Dec-03 17:32 018 2 gusting 5 11.1
2016-Dec-03 17:22 021 2 gusting 4 11.1
2016-Dec-03 13:12 076 1 gusting 4 13.3
2016-Dec-03 13:02 073 1 gusting 4 13.3
2016-Dec-03 12:52 072 1 gusting 4 13.3
2016-Dec-03 12:42 065 1 gusting 5 13.3
2016-Dec-03 12:32 075 1 gusting 4 13.3
2016-Dec-03 12:22 062 1 gusting 5 13.3
2016-Dec-03 12:12 050 1 gusting 4 13.3
2016-Dec-03 12:02 043 1 gusting 6 13.3
2016-Dec-03 11:52 053 2 gusting 6 13.3
2016-Dec-03 11:42 053 2 gusting 6 12.8
2016-Dec-03 11:32 045 2 gusting 6 12.8
2016-Dec-03 11:22 049 1 gusting 5 12.8
2016-Dec-03 11:12 042 2 gusting 5 12.8
2016-Dec-03 11:02 041 2 gusting 6 12.8
2016-Dec-03 10:52 048 2 gusting 6 12.2
2016-Dec-03 10:42 061 2 gusting 6 12.2
2016-Dec-03 10:32 056 1 gusting 5 12.2
2016-Dec-03 10:22 070 0 gusting 2 12.2
2016-Dec-03 10:12 059 1 gusting 6 11.7
2016-Dec-03 10:02 054 1 gusting 6 12.2
2016-Dec-03 09:52 044 1 gusting 6 11.7
2016-Dec-03 09:42 065 0 gusting 4 11.7
2016-Dec-03 09:32 054 0 gusting 6 11.1
2016-Dec-03 09:22 10.0
2016-Dec-03 09:12 8.9
2016-Dec-03 09:02 8.3
2016-Dec-03 08:52 8.9
2016-Dec-03 08:42 115 1 gusting 3 9.4
2016-Dec-03 08:32 035 1 gusting 6 9.4
2016-Dec-03 08:22 7.2
2016-Dec-03 08:12 6.7
2016-Dec-03 08:02 6.7
2016-Dec-03 07:52 5.6
2016-Dec-03 07:42 5.6
2016-Dec-03 07:32 5.0
2016-Dec-03 07:22 4.4
2016-Dec-03 07:12 4.4
2016-Dec-03 07:02 3.9
2016-Dec-03 06:52 3.9
2016-Dec-03 06:42 3.9
2016-Dec-03 06:32 3.9
2016-Dec-03 06:22 3.9
2016-Dec-03 06:12 3.3
2016-Dec-03 06:02 3.9
2016-Dec-03 05:52 3.3
2016-Dec-03 05:42 3.9
2016-Dec-03 05:32 3.9
2016-Dec-03 05:22 3.9
2016-Dec-03 05:12 3.3
2016-Dec-03 05:02 3.3
2016-Dec-03 04:52 4.4
2016-Dec-03 04:42 275 1 gusting 3 4.4
2016-Dec-03 04:32 270 0 gusting 3 3.9
2016-Dec-03 04:22 3.9
2016-Dec-03 04:12 3.9
2016-Dec-03 04:02 3.9
2016-Dec-03 03:52 3.9
2016-Dec-03 03:42 4.4
2016-Dec-03 03:32 4.4
2016-Dec-03 03:22 4.4
2016-Dec-03 03:12 336 0 gusting 0 4.4
2016-Dec-03 03:02 4.4
2016-Dec-03 02:52 4.4
2016-Dec-03 02:42 4.4
2016-Dec-03 02:32 5.0
2016-Dec-03 02:22 5.0
2016-Dec-03 02:12 261 0 gusting 1 5.0
2016-Dec-03 02:02 5.6
2016-Dec-03 01:52 5.6
2016-Dec-03 01:42 6.1
2016-Dec-03 01:32 6.7
2016-Dec-03 01:22 6.7
2016-Dec-03 01:12 6.7
2016-Dec-03 01:02 6.1
2016-Dec-03 00:52 6.7
2016-Dec-03 00:42 6.7
2016-Dec-03 00:32 6.7
2016-Dec-03 00:22 6.1
2016-Dec-03 00:12 5.6
2016-Dec-03 00:02 6.1
2016-Dec-02 23:52 6.7
2016-Dec-02 23:42 003 0 gusting 2 6.1
2016-Dec-02 23:32 6.1
2016-Dec-02 23:22 6.1
2016-Dec-02 23:12 6.1
2016-Dec-02 23:02 6.1
2016-Dec-02 22:52 6.7
2016-Dec-02 22:42 6.7
2016-Dec-02 22:32 6.7
2016-Dec-02 22:22 6.7
2016-Dec-02 22:12 7.2
2016-Dec-02 22:02 7.8
2016-Dec-02 21:52 7.8
2016-Dec-02 21:42 7.8
2016-Dec-02 21:32 8.3
2016-Dec-02 21:22 8.3
2016-Dec-02 21:12 8.3
2016-Dec-02 21:02 8.3
2016-Dec-02 20:52 7.8
2016-Dec-02 20:42 8.3
2016-Dec-02 20:32 8.3
2016-Dec-02 20:22 8.3
2016-Dec-02 20:12 8.9
2016-Dec-02 20:02 8.9
2016-Dec-02 19:52 9.4
2016-Dec-02 19:42 9.4
2016-Dec-02 19:32 9.4
2016-Dec-02 19:22 9.4
2016-Dec-02 19:12 9.4
2016-Dec-02 19:02 9.4
2016-Dec-02 18:50 318 9.4
2016-Dec-02 18:34 318 9.4
2016-Dec-02 18:18 257 10.0
2016-Dec-02 18:01 257 10.0
2016-Dec-02 17:45 257 10.6
2016-Dec-02 17:29 227 10.0
2016-Dec-02 17:13 283 11.1
2016-Dec-02 16:56 304 0 gusting 2 11.7
2016-Dec-02 16:40 289 12.2
2016-Dec-02 16:24 285 0 gusting 2 13.3
2016-Dec-02 16:08 262 13.9
2016-Dec-02 15:51 262 14.4
2016-Dec-02 15:35 285 0 gusting 3 15.0
2016-Dec-02 15:18 245 2 gusting 6 15.6
2016-Dec-02 15:02 258 2 gusting 6 15.6
2016-Dec-02 14:46 287 1 gusting 4 16.1
2016-Dec-02 14:30 250 15.6
2016-Dec-02 14:13 050 0 gusting 3 15.6
2016-Dec-02 13:57 059 15.6
2016-Dec-02 13:40 051 1 gusting 4 15.0
2016-Dec-02 13:24 057 1 gusting 4 15.0
2016-Dec-02 13:08 091 15.0
2016-Dec-02 12:51 110 0 gusting 3 14.4
2016-Dec-02 12:35 083 14.4
2016-Dec-02 12:19 095 1 gusting 4 13.9
2016-Dec-02 12:03 124 13.3
2016-Dec-02 11:46 091 1 gusting 4 13.3
2016-Dec-02 11:30 108 1 gusting 5 13.3
2016-Dec-02 11:14 133 2 gusting 5 13.9
2016-Dec-02 10:57 147 1 gusting 3 13.3
2016-Dec-02 10:41 263 4 gusting 9 13.9
2016-Dec-02 10:25 268 3 gusting 8 13.3
2016-Dec-02 10:09 269 1 gusting 5 12.2
2016-Dec-02 09:53 066 10.6
2016-Dec-02 09:36 102 9.4
2016-Dec-02 09:20 048 8.9
2016-Dec-02 09:04 048 8.3
2016-Dec-02 08:47 047 8.3
2016-Dec-02 08:31 118 8.3
2016-Dec-02 08:15 123 7.2
2016-Dec-02 07:52 6.7
2016-Dec-02 07:42 6.1
2016-Dec-02 07:32 5.6
2016-Dec-02 07:22 5.0
2016-Dec-02 07:12 4.4
2016-Dec-02 07:02 4.4
2016-Dec-02 06:52 4.4
2016-Dec-02 06:42 4.4
2016-Dec-02 06:32 4.4
2016-Dec-02 06:22 3.9
2016-Dec-02 06:12 4.4
2016-Dec-02 06:02 4.4